Weather History for Bangor, ME

Change the Weather History Date:

Friday, January 27, 2012

  Actual Average Record
Temperature  
Mean Temperature 31 °F 17 °F  
Max Temperature 36 °F 27 °F 57 °F (1974)
Min Temperature 25 °F 6 °F -21 °F (1994)
Degree Days  
Heating Degree Days 34 48  
Month to date heating degree days 1144 1294  
Since 1 July heating degree days 3554 4215  
Cooling Degree Days 0 0  
Month to date cooling degree days 0 0  
Year to date cooling degree days 0 0  
Moisture  
Dew Point 28 °F    
Average Humidity 79    
Maximum Humidity 100    
Minimum Humidity 58    
Precipitation  
Precipitation 1.05 in 0.09 in 1.74 in (1976)
Month to date precipitation 1.91 2.53  
Year to date precipitation 1.91 2.53  
Snow  
Snow 4.60 in 0.60 in 10.80 in (1963)
Month to date snowfall 9.3 16.8  
Since 1 July snowfall 33.7 33.6  
Snow Depth 3.00 in    
Sea Level Pressure  
Sea Level Pressure 29.64 in    
Wind  
Wind Speed 8 mph (NE)    
Max Wind Speed 20 mph    
Max Gust Speed 23 mph    
Visibility 3 miles    
Events Rain , Snow    
T = Trace of Precipitation, MM = Missing Value Source: NWS Daily Summary

Daily Weather History Graph

Daily Weather History Graph

Search for Another Location

Airport:

Trip Planner

Search our weather history database for the weather conditions in past years. The results will help you decide how hot, cold, wet, or windy it might be!

Date:

Astronomy

Jan. 27, 2012 Rise Set
Actual Time 7:00 AM EST 4:35 PM EST
Civil Twilight 6:28 AM EST 5:07 PM EST
Nautical Twilight 5:53 AM EST 5:43 PM EST
Astronomical Twilight 5:18 AM EST 6:17 PM EST
Moon 8:39 AM EST (1/27) 9:39 PM EST (1/27)
Length of Visible Light 10h 38m
Length of Day
9h 35m
Waxing Crescent, 19% of the Moon is Illuminated
Jan 27
Waxing Crescent
Jan 30
First Quarter
Feb 7
Full
Feb 14
Last Quarter
Feb 21
New

Hourly Weather History & Observations

Time (EST) Temp. Windchill Dew Point Humidity Pressure Visibility Wind Dir Wind Speed Gust Speed Precip Events Conditions
12:53 AM 28.9 °F 23.9 °F 16.0 °F 58% 30.08 in 10.0 mi ESE 4.6 mph - N/A   Overcast
1:53 AM 28.0 °F 20.0 °F 18.0 °F 66% 30.08 in 9.0 mi SE 8.1 mph - 0.00 in Snow Light Snow
2:53 AM 27.0 °F 19.5 °F 21.0 °F 78% 30.06 in 2.0 mi East 6.9 mph - 0.00 in Snow Light Snow
3:17 AM 24.8 °F 16.9 °F 21.2 °F 86% 30.04 in 1.8 mi ENE 6.9 mph - 0.00 in Snow Light Snow
3:53 AM 25.0 °F 17.1 °F 21.9 °F 88% 30.04 in 1.0 mi ENE 6.9 mph - 0.01 in Snow Light Snow
4:03 AM 24.8 °F 16.9 °F 21.2 °F 86% 30.03 in 1.0 mi ENE 6.9 mph - 0.01 in Snow Light Snow
4:53 AM 25.0 °F 15.5 °F 21.9 °F 88% 30.01 in 1.5 mi East 9.2 mph - 0.02 in Snow Light Snow
5:53 AM 25.0 °F 16.3 °F 21.9 °F 88% 29.99 in 1.0 mi ENE 8.1 mph - 0.04 in Snow Light Snow
6:22 AM 26.6 °F 20.0 °F 23.0 °F 86% 29.97 in 0.8 mi East 5.8 mph - 0.03 in Snow Light Snow
6:53 AM 26.1 °F 20.5 °F 23.0 °F 88% 29.96 in 0.8 mi ENE 4.6 mph - 0.06 in Snow Light Snow
7:41 AM 26.6 °F 17.5 °F 24.8 °F 93% 29.90 in 0.8 mi ENE 9.2 mph - 0.04 in Snow Light Snow
7:53 AM 27.0 °F 18.0 °F 24.1 °F 89% 29.91 in 0.8 mi East 9.2 mph - 0.05 in Snow Light Snow
8:01 AM 26.6 °F 17.5 °F 24.8 °F 93% 29.89 in 1.2 mi East 9.2 mph - 0.00 in Snow Light Snow
8:12 AM 28.4 °F 20.4 °F 24.8 °F 86% 29.88 in 2.0 mi East 8.1 mph - 0.01 in Snow Light Snow
8:26 AM 28.4 °F 20.4 °F 24.8 °F 86% 29.88 in 1.8 mi East 8.1 mph - 0.02 in Snow Light Snow
8:46 AM 28.4 °F 20.4 °F 24.8 °F 86% 29.86 in 1.5 mi ENE 8.1 mph - 0.04 in Snow Light Ice Pellets
8:53 AM 28.0 °F 19.3 °F 25.0 °F 88% 29.86 in 1.5 mi ENE 9.2 mph - 0.04 in Snow Light Ice Pellets
9:53 AM 28.9 °F 20.4 °F 26.1 °F 89% 29.82 in 1.0 mi East 9.2 mph - 0.05 in Snow Light Ice Pellets
10:34 AM 28.4 °F 21.2 °F 26.6 °F 93% 29.76 in 1.5 mi ENE 6.9 mph - 0.05 in Snow Light Ice Pellets
10:49 AM 30.2 °F 22.6 °F 26.6 °F 86% 29.72 in 1.8 mi ENE 8.1 mph - 0.06 in Snow Light Ice Pellets
10:53 AM 30.0 °F 22.4 °F 27.0 °F 88% 29.73 in 1.8 mi ENE 8.1 mph - 0.07 in Snow Light Ice Pellets
11:19 AM 30.2 °F 24.3 °F 28.4 °F 93% 29.70 in 1.2 mi ENE 5.8 mph - 0.04 in Rain , Snow Light Freezing Rain
11:53 AM 32.0 °F 26.4 °F 30.0 °F 92% 29.65 in 2.0 mi East 5.8 mph - 0.09 in Rain Light Freezing Rain
12:12 PM 33.8 °F 23.5 °F 30.2 °F 87% 29.61 in 2.0 mi ESE 16.1 mph - N/A Rain Light Rain
12:53 PM 34.0 °F 24.6 °F 30.9 °F 89% 29.56 in 4.0 mi East 13.8 mph - 0.09 in Rain Light Rain
1:53 PM 35.1 °F 27.4 °F 33.1 °F 92% 29.54 in 5.0 mi East 10.4 mph 16.1 mph 0.05 in Rain Light Rain
2:53 PM 36.0 °F 28.0 °F 33.1 °F 89% 29.44 in 3.0 mi East 11.5 mph - 0.05 in Rain Light Rain
3:53 PM 35.1 °F 27.9 °F 34.0 °F 96% 29.41 in 3.0 mi NNE 9.2 mph - 0.03 in Rain Light Rain
4:18 PM 35.6 °F 27.5 °F 33.8 °F 93% 29.35 in 2.0 mi NE 11.5 mph - 0.01 in Rain Light Rain
4:25 PM 35.6 °F 28.6 °F 33.8 °F 93% 29.37 in 1.5 mi NNE 9.2 mph - 0.01 in Rain Light Rain
4:41 PM 35.6 °F 27.5 °F 33.8 °F 93% 29.34 in 2.0 mi NNE 11.5 mph - 0.02 in Rain Light Rain
4:53 PM 35.1 °F 27.9 °F 34.0 °F 96% 29.34 in 2.5 mi North 9.2 mph - 0.03 in Rain Light Rain
5:13 PM 35.6 °F 28.0 °F 33.8 °F 93% 29.32 in 4.0 mi NNE 10.4 mph - 0.00 in Rain Light Rain
5:21 PM 35.6 °F 28.6 °F 33.8 °F 93% 29.33 in 1.5 mi North 9.2 mph - 0.00 in Rain Light Rain
5:53 PM 34.0 °F 25.0 °F 32.0 °F 92% 29.31 in 1.5 mi NNE 12.7 mph - 0.01 in Rain , Snow Light Rain
6:53 PM 33.8 °F 26.4 °F 33.8 °F 100% 29.26 in 1.5 mi North 9.2 mph - N/A Rain , Snow Light Rain
7:53 PM 32.0 °F 23.0 °F 30.9 °F 96% 29.24 in 1.5 mi North 11.5 mph - 0.03 in Rain Light Rain
8:07 PM 30.2 °F 19.8 °F 30.2 °F 100% 29.24 in 3.0 mi NNW 13.8 mph - 0.03 in Rain Light Freezing Rain
8:51 PM 30.2 °F 18.9 °F 28.4 °F 93% 29.28 in 3.0 mi NNW 16.1 mph - 0.15 in Rain Light Freezing Rain
8:53 PM 30.9 °F 20.2 °F 28.9 °F 92% 29.29 in 5.0 mi NW 15.0 mph - 0.16 in Rain Light Freezing Rain
9:53 PM 32.0 °F 21.6 °F 28.9 °F 88% 29.30 in 6.0 mi NW 15.0 mph - N/A Rain Light Freezing Rain
10:39 PM 32.0 °F 22.1 °F 28.4 °F 87% 29.30 in 2.5 mi NNW 13.8 mph - 0.06 in Snow Light Snow
10:53 PM 30.9 °F 21.7 °F 28.9 °F 92% 29.32 in 2.5 mi NNW 11.5 mph - 0.07 in Snow Light Snow
11:23 PM 30.2 °F 19.8 °F 28.4 °F 93% 29.32 in 4.0 mi NNW 13.8 mph - N/A Snow Light Snow
11:53 PM 30.9 °F 22.8 °F 28.0 °F 89% 29.35 in 7.0 mi NNW 9.2 mph - 0.00 in   Overcast